Terug naar catalogus

FENGYUN 1C DEB

ActiefSSO
NORAD 30348·DEBRIS·🇨🇳 China

Gelanceerd May 10, 1999 vanaf Taiyuan Satellite Launch Center

Loading…

Volgende Passages (komende 24 uur)

TLE

VersSource: Space-Track

Epoch: Sep 14, 2026, 06:26 UTC

1 30348U 99025ABK 26257.26866712  .00002845  00000-0  96147-3 0  9992
2 30348  98.8660   4.9521 0017819 277.7733 111.7397 14.37623066 14866

Volg FENGYUN 1C DEB in realtime met AllMySat

Download on the App Store